Location: Unspecified
(0.0000°N, 0.0000°E)
Time: 12:20:09
(UTC+02:00)

Cosmos 2369 Rocket - Visible Passes

Search period start: 28 July 2014 00:00
Search period end: 07 August 2014 00:00
Orbit: 830 x 852 km, 71.0° (Epoch: 27 July)

Date Brightness Start Highest point End Pass type
(mag) Time Alt. Az. Time Alt. Az. Time Alt. Az.
28 Jul 4.5 05:25:14 16° SE 05:26:43 17° ESE 05:30:17 10° ENE visible
28 Jul 2.9 07:07:07 18° SW 07:10:28 33° WNW 07:15:30 10° NNW visible
29 Jul 4.6 05:11:26 16° ESE 05:11:29 16° ESE 05:14:46 10° ENE visible
29 Jul 2.8 06:53:18 28° WSW 06:55:14 36° WNW 07:00:22 10° N visible
30 Jul 4.8 04:57:34 13° E 04:57:34 13° E 04:59:13 10° ENE visible
30 Jul 2.7 06:39:26 37° W 06:40:00 38° WNW 06:45:14 10° N visible
31 Jul 2.7 06:25:29 40° NW 06:25:29 40° NW 06:30:04 10° N visible
01 Aug 3.2 06:11:29 33° NNW 06:11:29 33° NNW 06:14:55 10° N visible
02 Aug 3.7 05:57:24 24° NNW 05:57:24 24° NNW 05:59:44 10° N visible
03 Aug 4.3 05:43:15 17° N 05:43:15 17° N 05:44:34 10° N visible
04 Aug 4.7 05:29:02 12° N 05:29:02 12° N 05:29:22 10° N visible
